User: anonymous   Login
Location: PACMO
(41.3967°N, 90.3760°W)
Time: 17:50:30
(UTC-05:00)
Language:

BREEZE-M DEB (TANK) - Orbit

View from above orbital plane
View from above orbital plane
View from above satellite
View from above satellite

Ground track
Ground track

The orbit data is extracted from the following two-line orbital elements,

1 31863U 07032B   14297.53043574  .00001248  00000-0  73476-3 0  3110
2 31863 045.9642 106.8104 4994139 222.6232 085.5144 05.50821700146164
Epoch (UTC): 24 October 2014 12:43:49
Eccentricity: 0.4994139
inclination: 45.9642°
perigee height: 401 km
apogee height: 13929 km
right ascension of ascending node: 106.8104°
argument of perigee: 222.6232°
revolutions per day: 5.50821700
mean anomaly at epoch: 85.5144°
orbit number at epoch: 14616

The dashed part of the orbit path shows where the satellite is in the earth's shadow,  

DLR